Wetbulb
66.50 66.57 66.41 66.51 66.64 66.63 66.39 66.11 66.08 65.86 65.67 65.66 65.54 65.22 64.99 65.20 65.29 65.08 65.00 62.34 62.87 62.65 64.04 65.23 65.31 64.73 64.05 64.58 64.96 66.15 66.92 67.77 68.24 67.90 67.18 66.95 66.84 66.68 66.57 66.03 65.90 65.87 65.60
66.92 66.67 66.60 66.72 66.73 66.81 66.74 66.29 65.90 65.50 65.36 65.58 65.24 65.50 65.34 65.52 65.56 65.26 65.25 65.18 63.21 62.64 62.74 64.49 65.59 65.76 65.63 65.13 64.71 66.32 66.37 67.11 67.89 68.33 68.23 67.40 66.91 66.73 66.76 66.84 66.44 66.37 66.45
66.70 66.57 66.30 66.26 66.72 66.70 66.24 66.14 65.72 65.60 65.10 65.10 64.68 65.04 65.15 65.15 64.97 65.03 65.26 65.27 64.97 62.03 62.13 63.25 65.14 65.89 65.94 66.23 66.17 66.47 66.92 66.76 66.75 67.43 67.95 68.00 67.46 66.80 66.78 66.62 66.59 66.61 66.59
65.90 66.00 65.89 65.95 66.13 65.82 65.29 64.64 64.07 63.42 63.42 63.20 62.98 63.39 63.85 64.37 64.47 64.40 64.51 64.79 64.65 64.37 63.61 62.63 62.67 63.94 65.71 66.42 66.89 67.01 67.66 66.85 66.64 66.40 66.88 67.32 67.60 67.14 66.99 66.91 66.68 66.57 66.68
65.18 65.33 64.46 63.37 62.99 62.97 62.80 62.40 62.17 61.82 60.64 60.99 60.52 61.39 62.17 62.64 63.52 64.06 64.26 63.99 64.06 63.94 63.95 62.67 62.10 61.76 62.33 63.56 65.85 67.02 68.12 67.58 66.79 66.67 66.42 66.25 66.48 67.24 67.07 66.99 66.88 66.87 66.83
59.25 59.64 58.50 57.50 58.28 58.07 57.43 57.18 57.13 57.82 57.90 58.61 57.68 58.33 60.24 60.94 61.94 62.72 63.28 63.75 64.67 64.37 64.34 63.99 63.72 63.09 60.40 61.03 62.27 64.08 65.74 67.48 67.05 66.50 66.63 66.52 66.54 66.47 66.85 66.98 66.91 66.94 67.00
55.40 55.41 55.28 55.01 55.05 54.81 54.48 54.53 54.50 53.83 54.07 55.29 53.48 54.23 55.02 57.79 59.53 59.22 62.10 61.12 61.60 62.84 64.28 64.25 64.42 63.47 63.43 62.61 62.58 62.45 63.16 64.62 65.72 66.37 66.64 66.51 66.36 66.37 66.74 66.79 66.53 66.75 67.11
53.28 53.04 53.00 52.90 53.04 52.84 52.78 52.64 52.67 51.58 52.04 52.88 50.84 50.94 48.79 52.31 54.92 55.80 56.26 56.58 57.88 59.40 61.40 63.12 63.43 63.30 63.47 63.69 62.23 62.30 62.80 63.31 64.46 65.21 65.82 66.16 66.91 67.36 67.20 66.99 66.96 66.62 66.63
50.70 50.77 50.73 50.66 50.51 50.86 49.94 50.22 49.91 49.31 47.89 49.92 51.03 48.90 46.81 45.22 49.61 52.25 53.38 54.63 55.71 56.28 57.24 58.76 59.16 59.80 60.92 61.78 61.47 60.74 60.21 61.28 62.54 64.04 64.69 64.93 65.93 66.21 67.14 67.73 67.71 67.46 66.90
47.89 47.38 47.74 47.84 47.82 48.18 47.70 47.73 47.69 47.91 48.00 46.05 48.06 49.09 49.42 48.36 45.63 45.25 50.19 51.42 52.89 53.17 53.98 55.49 56.15 56.29 57.33 58.11 59.25 58.60 59.29 60.33 62.40 63.52 64.05 64.58 64.67 65.11 65.68 66.56 67.61 67.61 67.09
46.40 44.86 45.14 45.62 45.32 45.66 45.71 45.72 45.63 46.39 46.88 45.32 45.18 45.95 46.74 47.44 47.35 45.20 42.63 44.84 48.17 49.30 50.63 52.04 53.52 55.49 55.79 56.81 58.42 58.45 57.67 59.02 60.25 61.50 62.96 63.62 64.27 64.28 64.26 65.33 66.67 67.21 66.78
44.55 43.70 43.66 44.13 44.24 43.93 43.52 43.83 44.42 45.59 45.47 44.20 44.56 45.12 45.09 43.36 42.79 41.89 41.12 42.74 43.34 45.49 47.55 50.01 51.25 53.66 54.87 55.85 55.91 54.98 54.46 53.89 54.36 55.42 58.64 61.01 62.05 62.62 63.22 64.02 63.02 62.62 63.35
42.42 41.88 42.43 42.26 42.25 42.25 42.01 42.52 42.65 44.08 43.87 42.35 43.00 44.01 44.10 42.57 42.42 41.11 41.08 42.21 41.80 44.71 46.43 48.76 49.96 51.23 50.40 50.56 51.69 50.54 49.54 51.68 52.34 54.20 56.96 57.83 57.97 58.71 59.23 59.62 59.87 60.27 60.95
40.99 41.18 41.03 41.14 41.06 40.92 40.89 41.15 41.42 41.98 42.09 41.58 40.75 41.96 42.45 41.61 42.32 42.09 42.02 41.74 39.61 41.31 43.05 42.44 46.21 47.12 47.55 48.91 49.25 49.64 47.62 48.84 50.26 51.84 51.43 51.86 53.27 56.04 56.68 56.79 57.68 58.31 59.10
39.46 39.93 40.17 39.83 40.15 40.01 39.85 39.83 39.89 39.81 39.98 40.28 40.07 41.24 41.01 41.28 42.08 42.15 41.54 41.91 38.99 35.77 36.86 41.12 40.76 42.71 44.22 44.76 47.50 46.34 45.47 46.59 49.74 49.45 49.69 50.49 50.66 53.97 54.16 54.69 54.60 56.26 57.47
39.08 38.98 38.85 38.77 38.82 38.88 38.84 38.75 38.75 38.81 38.38 38.95 39.47 39.31 40.00 40.15 40.16 39.56 39.00 39.19 38.92 37.59 34.25 38.78 39.64 41.03 41.64 44.32 45.09 43.87 44.08 45.60 47.61 46.58 47.12 48.84 50.28 48.77 50.16 51.97 54.28 55.55 56.42
37.96 37.73 37.60 37.49 37.46 37.44 37.78 37.48 37.43 37.34 37.08 37.73 38.45 38.27 38.03 38.93 38.03 37.45 37.91 37.70 36.82 37.08 34.76 37.11 38.98 40.30 39.15 40.34 41.57 42.25 43.82 43.94 44.53 45.87 47.37 49.22 47.61 49.33 50.21 51.72 51.81 52.56 54.36
37.37 36.94 36.75 36.56 36.62 36.64 36.71 36.19 35.91 36.45 36.39 36.29 36.78 36.87 36.42 36.91 36.18 36.36 36.52 35.63 36.49 36.94 35.22 33.36 36.08 37.13 37.31 38.86 40.43 40.12 40.48 41.63 42.29 43.81 44.04 45.89 47.65 48.39 49.16 49.95 51.27 50.92 51.31
36.25 36.51 36.29 35.73 35.51 35.57 35.34 35.65 35.69 35.86 36.26 36.41 36.42 35.89 35.41 35.23 34.45 35.17 35.18 35.21 36.23 36.12 36.07 34.14 33.86 36.97 37.31 38.34 37.21 38.06 38.74 40.05 41.22 42.44 43.21 43.43 45.70 46.17 47.51 48.78 49.23 49.78 50.11
35.51 35.50 35.50 35.23 35.09 34.94 34.86 34.87 34.86 35.45 35.78 36.05 36.04 35.82 35.14 34.51 33.99 33.88 34.19 34.43 34.64 34.40 34.46 33.98 34.02 34.28 35.34 36.48 36.65 35.48 35.45 38.36 38.27 40.73 41.71 42.69 43.93 45.05 45.85 46.98 47.64 47.70 49.43
35.10 35.08 34.56 34.79 34.86 34.41 34.17 33.78 34.29 34.64 34.77 34.74 35.33 35.05 34.95 34.88 35.02 35.18 34.80 34.44 34.03 33.38 33.53 33.23 32.49 32.56 32.36 32.94 32.44 34.62 33.73 35.34 37.04 39.05 40.10 40.96 42.31 43.38 43.58 43.75 44.70 45.89 47.42
34.79 34.46 34.31 34.15 33.79 33.55 34.22 34.07 34.39 33.83 34.01 33.96 33.31 33.86 34.25 34.35 34.63 35.85 35.95 36.21 35.09 33.17 32.57 32.75 31.40 30.37 31.13 31.55 33.29 32.71 32.40 31.73 29.61 39.16 37.38 37.28 39.54 38.69 41.31 43.46 43.75 45.96 46.62
34.18 33.82 33.76 33.46 32.79 33.04 33.63 33.63 34.25 33.46 33.45 33.49 33.21 32.96 33.00 33.85 34.57 34.21 35.20 35.49 35.60 35.89 34.86 31.59 30.39 30.76 30.47 32.30 32.48 31.71 32.06 32.03 31.80 36.13 36.29 33.87 37.85 37.90 40.44 41.90 42.22 43.57 45.23
33.25 33.04 32.83 32.67 32.17 32.19 32.68 33.14 33.46 33.28 33.19 33.31 33.24 33.25 32.81 32.98 34.01 34.05 33.93 33.65 33.04 32.58 33.05 32.85 32.10 32.30 33.28 33.78 33.07 32.62 33.03 33.64 34.95 36.15 36.55 31.72 36.52 35.89 38.73 37.82 40.97 42.78 44.40
32.37 32.26 32.22 31.63 30.93 31.03 32.00 32.13 32.72 32.37 32.11 32.25 33.02 33.32 33.32 32.89 34.20 34.74 33.61 31.59 30.56 30.71 32.63 33.23 33.61 33.51 33.00 33.35 33.47 32.35 30.64 30.54 28.86 32.08 34.78 32.59 33.92 33.47 35.89 35.66 38.29 40.85 41.20
31.58 31.68 31.12 31.47 31.16 30.35 31.79 32.28 32.68 31.74 30.67 31.52 32.14 32.75 34.23 33.60 34.55 34.96 31.45 30.41 28.19 28.51 29.96 30.53 30.04 30.06 30.99 31.51 32.92 32.46 30.99 27.81 27.91 27.74 32.36 30.89 30.32 32.40 29.13 37.69 35.86 36.24 37.88
MSLP
1012.21 1012.19 1012.15 1011.90 1011.82 1011.79 1011.47 1011.26 1011.02 1010.74 1010.48 1010.21 1009.94 1009.77 1009.46 1009.09 1008.71 1008.34 1007.95 1007.85 1008.00 1008.03 1007.86 1007.50 1007.31 1007.21 1007.10 1006.98 1006.89 1006.83 1006.80 1006.78 1006.78 1006.88 1007.06 1007.25 1007.45 1007.70 1007.93 1008.09 1008.20 1008.32 1008.44
1012.02 1012.03 1011.90 1011.68 1011.49 1011.38 1011.12 1010.92 1010.70 1010.43 1010.17 1009.88 1009.45 1009.21 1008.89 1008.46 1008.02 1007.71 1007.30 1006.86 1006.86 1006.90 1006.83 1006.57 1006.21 1006.02 1005.89 1005.79 1005.73 1005.73 1005.78 1005.79 1005.79 1005.80 1005.92 1006.08 1006.26 1006.46 1006.65 1006.82 1007.05 1007.22 1007.37
1011.80 1011.79 1011.71 1011.47 1011.24 1011.14 1010.97 1010.77 1010.57 1010.30 1009.94 1009.55 1009.19 1008.80 1008.42 1007.96 1007.46 1007.00 1006.55 1006.12 1005.75 1005.71 1005.70 1005.61 1005.25 1004.83 1004.61 1004.49 1004.37 1004.30 1004.28 1004.26 1004.24 1004.24 1004.34 1004.52 1004.77 1005.00 1005.16 1005.36 1005.59 1005.83 1006.07
1011.88 1011.77 1011.67 1011.49 1011.33 1011.11 1011.03 1010.82 1010.59 1010.19 1009.79 1009.46 1009.07 1008.65 1008.18 1007.60 1006.91 1006.43 1005.92 1005.43 1004.97 1004.65 1004.38 1004.43 1004.33 1004.15 1003.79 1003.50 1003.24 1003.05 1002.93 1002.87 1002.90 1003.07 1003.15 1003.21 1003.33 1003.59 1003.79 1003.96 1004.18 1004.46 1004.77
1012.12 1011.89 1011.84 1011.72 1011.54 1011.40 1011.11 1010.94 1010.57 1010.32 1010.02 1009.47 1009.08 1008.58 1007.95 1007.24 1006.42 1005.73 1005.22 1004.90 1004.46 1004.10 1003.69 1003.40 1003.37 1003.26 1003.15 1002.88 1002.43 1002.08 1001.83 1001.72 1001.68 1001.67 1001.72 1001.77 1001.85 1001.97 1002.19 1002.36 1002.51 1002.70 1002.99
1012.61 1012.37 1012.33 1012.28 1011.91 1011.70 1011.51 1011.30 1010.94 1010.56 1010.01 1009.19 1008.67 1007.93 1007.43 1006.56 1005.87 1005.16 1004.59 1004.12 1003.75 1003.60 1003.20 1002.82 1002.45 1001.99 1001.98 1001.90 1001.71 1001.42 1001.04 1000.66 1000.50 1000.51 1000.43 1000.35 1000.33 1000.33 1000.32 1000.57 1000.84 1001.08 1001.29
1013.26 1013.16 1012.96 1012.77 1012.59 1012.29 1012.15 1011.91 1011.47 1010.88 1010.07 1009.55 1008.80 1007.82 1007.04 1005.78 1004.88 1004.60 1004.47 1003.89 1003.13 1002.57 1002.26 1001.90 1001.78 1001.59 1001.04 1000.90 1000.74 1000.54 1000.22 999.96 999.49 999.22 999.06 999.10 998.99 998.92 998.85 998.81 999.00 999.28 999.48
1013.97 1013.76 1013.68 1013.46 1013.26 1012.89 1012.58 1012.30 1011.82 1011.31 1010.66 1010.21 1009.36 1008.41 1006.52 1005.82 1005.11 1005.22 1005.00 1003.69 1002.89 1002.42 1001.64 1001.62 1001.31 1001.00 1000.70 1000.41 1000.23 999.93 999.48 999.16 998.77 998.16 997.77 997.60 997.39 997.28 997.38 997.46 997.47 997.61 997.86
1014.70 1014.58 1014.33 1013.95 1013.66 1013.36 1013.05 1012.78 1012.38 1011.93 1011.22 1010.63 1010.23 1009.52 1007.66 1006.71 1006.14 1005.90 1004.98 1003.82 1003.02 1002.66 1002.06 1001.46 1000.93 1000.46 1000.03 999.61 999.55 999.29 998.75 998.47 998.01 997.47 997.04 996.47 996.25 996.05 995.92 995.83 995.81 995.89 996.04
1015.25 1015.10 1014.83 1014.55 1014.22 1013.89 1013.60 1013.26 1012.87 1012.54 1011.99 1011.15 1010.62 1010.03 1009.54 1008.58 1006.99 1005.12 1004.89 1004.71 1003.76 1003.19 1002.67 1001.93 1001.35 1000.74 1000.17 999.46 998.35 998.16 997.93 997.62 997.14 996.84 996.32 995.80 995.41 994.98 994.59 994.40 994.43 994.50 994.53
1015.63 1015.60 1015.28 1014.97 1014.65 1014.34 1014.10 1013.82 1013.40 1012.89 1012.41 1011.83 1011.12 1010.53 1009.80 1008.92 1008.28 1007.24 1004.59 1004.63 1004.37 1003.73 1002.95 1002.19 1001.24 1000.15 999.58 999.23 998.42 998.00 997.83 997.52 997.00 996.34 995.57 994.92 994.40 994.07 993.66 993.08 993.07 992.97 993.06
1015.74 1015.84 1015.56 1015.22 1015.02 1014.85 1014.56 1014.15 1013.69 1013.16 1012.67 1012.23 1011.66 1010.96 1010.18 1009.46 1008.54 1007.72 1006.23 1004.77 1003.95 1003.30 1002.74 1001.85 1001.12 1000.04 999.28 998.58 998.22 998.06 997.81 997.62 996.93 996.26 995.34 994.50 993.86 993.16 992.84 992.44 991.86 992.01 990.83
1015.97 1016.04 1015.89 1015.65 1015.44 1015.22 1014.83 1014.33 1013.83 1013.33 1012.84 1012.52 1011.93 1011.15 1010.56 1009.85 1009.11 1008.29 1007.04 1005.24 1004.00 1003.13 1002.33 1001.56 1000.73 999.93 999.49 998.97 998.30 998.09 997.74 997.32 996.83 995.97 995.28 994.59 993.73 993.24 992.88 992.23 991.81 991.76 991.47
1016.57 1016.58 1016.33 1016.01 1015.65 1015.25 1014.81 1014.37 1013.85 1013.33 1012.83 1012.37 1011.92 1011.33 1010.55 1009.91 1009.16 1008.41 1007.41 1006.30 1004.42 1003.28 1002.23 1001.18 1001.03 1000.49 999.89 999.25 998.80 998.04 997.62 997.09 996.54 995.66 995.37 994.66 993.72 992.99 992.41 992.06 991.71 991.28 990.25
1016.96 1016.64 1016.32 1015.94 1015.57 1015.24 1014.91 1014.43 1013.74 1013.25 1012.84 1012.25 1011.80 1011.08 1010.44 1009.75 1009.04 1008.36 1007.70 1007.09 1005.87 1003.80 1002.32 1001.12 1000.89 1000.90 1000.27 999.71 998.53 998.11 997.71 997.06 995.84 995.36 994.67 994.19 993.33 992.44 991.85 991.30 991.08 990.69 989.86
1017.06 1016.77 1016.40 1016.02 1015.61 1015.26 1014.83 1014.34 1013.71 1013.18 1012.65 1012.13 1011.49 1010.82 1010.16 1009.53 1008.93 1008.40 1007.69 1006.93 1006.06 1004.93 1003.17 1002.18 1001.16 1000.77 1000.23 999.28 998.52 998.12 997.48 996.70 995.44 994.80 994.21 993.41 992.45 992.03 991.23 990.34 989.78 989.52 988.91
1017.20 1016.89 1016.54 1016.13 1015.68 1015.16 1014.67 1014.08 1013.47 1012.94 1012.43 1011.79 1011.16 1010.41 1009.82 1009.24 1008.60 1008.04 1007.45 1006.68 1005.79 1005.02 1003.66 1002.27 1001.73 1000.55 1000.05 999.11 998.17 997.74 996.86 996.05 994.95 994.25 993.45 992.41 991.91 991.35 990.63 989.82 989.26 988.98 988.20
1017.26 1017.02 1016.70 1016.23 1015.56 1014.99 1014.49 1013.87 1013.25 1012.74 1012.06 1011.28 1010.61 1010.00 1009.34 1008.81 1008.30 1007.78 1006.97 1006.22 1005.57 1004.69 1003.74 1002.41 1001.51 1000.59 999.72 999.05 998.05 997.12 996.32 995.60 994.65 993.57 992.88 991.97 991.18 990.47 989.84 989.12 988.63 987.90 987.98
1017.36 1016.99 1016.56 1016.00 1015.40 1014.95 1014.42 1013.74 1013.05 1012.37 1011.62 1010.95 1010.28 1009.65 1009.13 1008.65 1007.92 1007.26 1006.71 1005.97 1005.09 1004.26 1003.72 1002.73 1001.23 1000.57 999.53 998.49 997.59 996.93 996.03 994.81 993.94 993.00 992.07 991.24 990.44 989.96 989.36 988.64 987.99 987.61 987.33
1017.25 1016.80 1016.31 1015.77 1015.30 1014.71 1014.05 1013.31 1012.88 1012.06 1011.31 1010.55 1009.94 1009.48 1008.98 1008.39 1007.67 1007.08 1006.35 1005.60 1004.87 1004.13 1003.20 1002.20 1001.15 1000.07 999.21 998.01 997.23 995.87 994.66 994.20 993.37 992.53 991.71 990.85 990.11 989.37 988.53 987.88 987.39 986.84 986.20
1017.08 1016.58 1016.07 1015.52 1014.93 1014.33 1013.56 1013.39 1012.76 1011.89 1010.97 1010.14 1009.53 1009.03 1008.54 1008.10 1007.60 1006.88 1005.95 1005.24 1004.75 1003.66 1002.75 1001.72 1000.60 999.69 998.59 997.55 996.66 995.69 994.72 993.66 992.79 992.02 990.80 989.94 989.21 988.64 988.18 987.64 986.75 985.86 985.55
1016.73 1016.26 1015.64 1015.04 1014.39 1013.80 1013.48 1013.26 1012.75 1011.69 1010.74 1009.74 1008.98 1008.51 1007.92 1007.30 1006.60 1006.17 1005.55 1004.92 1004.19 1003.26 1002.45 1001.47 1000.40 999.35 998.20 997.51 996.37 995.54 994.72 993.52 991.96 991.11 990.13 989.34 988.95 988.13 987.38 986.52 986.12 985.50 984.96
1016.27 1015.71 1015.15 1014.62 1014.00 1013.52 1013.20 1012.93 1012.25 1011.36 1010.27 1009.37 1008.66 1007.94 1007.18 1006.58 1006.24 1005.57 1004.68 1003.87 1003.45 1002.85 1001.99 1001.26 1000.14 999.12 997.92 997.09 996.39 995.18 994.22 993.18 991.66 990.55 990.24 988.63 988.38 987.34 986.71 985.93 985.31 984.68 984.12
1015.79 1015.25 1014.70 1014.21 1013.75 1013.21 1012.93 1012.45 1011.87 1010.68 1009.70 1008.91 1008.25 1007.55 1006.83 1006.25 1005.74 1004.72 1003.72 1003.34 1002.49 1001.86 1001.29 1000.53 999.67 998.84 997.92 996.69 995.84 994.98 993.86 992.40 991.14 990.18 989.68 988.21 987.95 986.89 986.15 985.90 985.09 983.96 983.39
1015.52 1014.92 1014.41 1013.84 1013.29 1012.78 1012.52 1012.15 1011.34 1010.17 1009.07 1008.29 1007.74 1007.14 1006.73 1005.92 1005.01 1004.24 1003.83 1002.81 1001.84 1001.06 1000.54 999.81 998.92 997.87 997.06 996.18 995.20 994.24 993.05 991.81 990.44 989.40 989.18 988.61 987.69 986.70 986.14 985.05 983.93 983.47 983.04
1015.22 1014.67 1013.97 1013.46 1012.95 1012.33 1011.93 1011.65 1010.93 1009.84 1008.76 1008.01 1007.40 1006.79 1006.03 1005.17 1004.41 1003.89 1003.12 1001.98 1001.16 1000.41 999.66 998.54 997.74 997.32 996.40 995.45 994.49 993.82 992.93 991.77 990.58 989.00 988.86 988.42 987.55 986.93 985.42 984.01 983.89 983.60 982.93
Wind_Speed
4 5 5 6 6 6 7 7 8 8 10 11 11 13 14 14 15 10 9 12 18 23 26 26 26 27 28 29 30 28 28 27 28 28 28 28 27 27 27 28 28 27 28
4 5 6 6 6 6 7 7 8 9 9 10 12 13 14 14 15 15 12 13 15 22 26 28 28 28 29 29 30 28 28 28 29 29 30 30 30 30 30 30 30 30 29
5 6 6 6 6 7 9 8 9 9 9 9 12 12 12 15 14 16 14 12 13 17 25 28 29 29 30 30 31 31 29 30 31 31 31 31 32 32 32 33 33 33 32
5 5 5 6 7 7 7 7 8 9 9 10 10 11 12 13 15 16 14 13 12 12 11 24 27 29 29 31 32 33 31 31 31 32 32 32 32 33 34 34 34 34 34
6 4 5 6 7 6 6 7 7 8 9 9 9 11 12 12 14 13 15 16 16 14 11 14 15 22 26 30 31 33 32 32 32 32 33 34 33 33 36 36 36 36 36
10 7 7 8 8 7 8 9 11 10 11 11 11 12 12 12 12 12 13 12 12 14 14 15 13 12 21 27 29 30 31 31 32 34 34 35 35 36 36 38 38 38 38
11 10 7 9 9 8 9 10 9 12 10 11 11 12 12 15 11 13 9 13 16 16 16 14 11 9 9 16 22 26 28 30 32 31 33 34 36 37 38 39 39 39 39
11 9 9 8 9 7 9 10 11 10 10 11 12 12 10 11 9 15 15 13 17 14 14 14 15 16 14 11 12 17 21 27 29 32 31 32 34 35 37 38 39 39 39
10 9 9 8 9 8 8 9 10 12 10 10 13 10 11 11 14 13 15 14 16 14 14 15 19 18 17 14 14 16 20 25 29 30 32 31 31 33 35 36 37 38 39
10 10 9 9 9 7 8 9 9 10 10 10 9 9 13 15 14 15 8 14 14 16 18 14 15 18 19 17 16 15 19 23 29 30 30 29 32 33 33 35 35 36 37
8 9 9 8 8 7 8 9 10 10 8 9 9 10 12 11 14 14 17 12 14 14 14 15 16 15 19 19 15 16 23 25 28 30 32 32 31 31 31 32 33 34 35
5 9 9 8 8 8 9 8 9 10 9 9 9 10 10 11 12 13 15 17 18 14 14 14 15 14 14 13 13 12 17 24 26 29 29 30 30 30 28 33 32 29 26
6 9 10 9 7 8 8 9 9 9 9 9 11 10 10 11 12 12 14 14 16 15 14 14 14 13 11 11 14 16 23 23 27 28 28 31 30 29 28 28 28 33 31
6 7 7 7 8 9 9 9 8 8 9 9 13 12 10 11 11 12 13 13 15 15 16 23 14 14 14 13 20 18 17 28 30 28 31 32 29 27 27 26 26 27 31
5 7 8 9 9 10 10 10 8 10 10 10 12 12 12 12 11 12 12 12 14 16 16 17 16 18 14 15 17 18 20 28 28 32 27 31 30 24 25 26 25 25 26
7 8 9 9 10 10 10 11 9 10 11 10 10 14 13 12 13 12 12 12 13 14 16 15 15 19 19 15 18 20 20 28 27 31 32 32 23 27 30 30 27 23 25
7 8 9 10 10 11 11 11 12 12 14 14 14 15 16 16 12 13 13 13 13 13 14 16 14 18 23 21 19 18 17 18 16 28 31 29 29 29 31 29 26 27 24
7 8 9 10 11 11 12 13 13 13 15 16 16 16 17 13 17 16 13 16 14 16 14 19 18 17 21 22 20 21 17 15 18 22 32 31 29 30 31 31 25 24 23
8 9 9 10 12 12 13 13 13 16 16 16 17 17 17 17 17 14 15 15 13 13 14 15 17 15 16 16 18 18 19 18 15 23 28 29 28 27 29 28 28 25 24
9 10 10 11 12 13 13 13 15 16 17 16 17 16 17 17 18 18 16 17 15 16 16 15 15 15 15 17 15 15 15 14 16 15 21 24 27 27 26 25 25 26 18
9 10 11 12 12 12 10 14 16 17 18 18 17 16 16 18 23 21 14 16 18 17 15 15 15 14 15 15 16 15 15 15 16 15 14 12 12 12 13 23 23 26 25
10 11 12 13 13 10 17 19 19 16 18 17 16 17 16 20 19 26 27 29 25 19 20 15 15 16 20 17 16 15 16 16 16 13 14 14 12 12 14 12 24 26 28
11 12 13 14 15 14 18 20 22 15 16 15 16 17 16 13 19 18 22 28 25 25 24 20 19 18 21 19 20 20 19 17 17 15 15 16 11 13 12 14 26 28 30
12 13 14 14 14 13 19 21 22 16 15 16 17 17 18 19 18 21 20 19 18 19 19 16 18 18 19 20 19 18 20 20 17 14 10 15 11 14 12 11 26 28 27
12 13 13 15 15 14 19 19 20 16 16 17 16 17 18 19 25 30 18 19 21 19 21 27 31 30 32 32 25 14 13 14 14 13 8 12 11 12 10 13 13 16 17
13 12 14 13 15 15 17 19 19 13 16 13 16 18 23 23 29 30 23 17 17 19 19 21 17 20 21 19 26 15 12 14 13 15 7 7 11 10 8 5 4 8 9
Wind_Direction
293 299 300 310 305 303 300 299 296 294 289 287 283 278 275 272 271 268 268 247 231 245 253 253 252 252 252 251 250 249 248 249 245 239 236 235 234 235 237 239 240 240 239
303 312 304 294 300 301 303 301 301 300 294 292 290 283 280 278 273 272 271 270 236 239 246 251 251 250 250 251 251 250 248 248 248 246 240 237 235 234 234 235 236 237 237
298 295 299 307 315 322 316 314 311 304 298 297 294 296 294 289 283 280 274 268 270 235 238 250 253 249 246 246 247 247 246 243 243 242 242 238 237 235 233 233 234 234 235
328 316 319 329 338 331 327 321 324 315 312 311 310 308 303 294 286 283 279 277 271 270 248 237 247 256 256 252 250 250 247 245 243 243 244 246 239 236 237 235 234 235 235
21 10 13 8 355 352 349 342 331 329 312 309 304 300 300 293 289 287 279 280 278 273 269 270 242 243 250 257 258 257 254 250 246 245 243 243 244 239 237 236 235 234 233
45 43 38 24 9 7 1 351 341 334 322 322 319 307 301 291 291 288 290 290 286 286 281 275 274 262 235 247 255 259 261 259 255 253 249 245 243 242 240 237 236 236 235
40 33 24 17 8 3 357 347 340 334 329 330 313 320 306 279 307 304 347 312 296 289 285 279 282 282 276 248 247 255 259 261 262 257 251 251 251 249 247 244 240 237 236
35 31 20 11 6 351 353 349 348 337 331 335 326 316 324 304 316 333 307 296 309 294 294 293 280 287 287 286 283 272 262 262 265 267 262 253 250 250 248 248 247 245 242
33 25 19 9 5 358 355 349 349 341 332 329 339 319 322 318 313 309 313 290 328 315 304 309 313 307 289 278 270 270 258 260 264 267 271 274 265 256 254 251 247 245 244
30 20 14 9 6 357 358 351 350 343 338 333 330 331 315 314 314 313 317 316 303 324 306 304 305 302 299 281 281 275 265 265 269 274 277 273 275 272 266 256 252 251 248
28 18 11 8 7 4 359 350 345 344 338 334 334 327 321 319 320 313 311 314 298 303 303 298 283 294 309 295 285 310 320 321 311 302 294 284 277 278 280 278 265 258 251
14 20 8 11 8 1 355 345 341 339 336 331 325 320 318 317 310 308 300 304 303 303 300 304 293 290 304 303 307 327 341 332 327 319 312 306 300 294 287 279 283 284 294
11 10 4 0 356 352 345 339 335 329 327 326 320 313 313 308 307 304 301 303 304 305 304 297 299 304 316 313 307 350 326 319 317 312 326 319 315 312 308 303 298 294 291
1 355 350 346 344 344 342 335 321 325 325 318 317 310 307 303 304 303 302 304 302 301 305 300 310 308 318 311 315 316 316 313 313 311 312 309 309 303 300 300 298 291 291
345 344 344 343 342 339 332 327 322 320 321 316 310 305 302 303 301 300 305 304 304 298 301 303 308 310 303 308 294 318 311 300 308 304 306 303 297 298 305 302 299 293 292
346 339 340 338 333 326 323 324 318 319 312 310 302 305 303 301 305 305 297 298 299 293 295 296 307 300 311 301 305 307 305 296 294 308 302 292 294 304 297 297 298 297 295
340 333 334 328 320 319 322 320 319 313 311 307 305 303 304 304 300 303 300 294 298 294 299 290 294 304 304 300 301 301 296 299 298 301 290 297 304 291 290 289 294 288 289
335 331 321 313 315 320 324 320 316 313 309 308 308 306 306 306 304 300 297 303 297 295 293 299 300 300 301 306 304 304 297 302 292 293 294 289 291 289 286 287 290 296 293
324 316 315 318 321 323 319 313 315 311 309 307 307 309 307 307 303 305 306 301 300 301 302 297 296 299 298 304 305 302 298 297 294 297 295 293 288 296 292 285 286 287 286
315 320 323 321 316 315 314 316 317 312 309 307 309 306 307 307 308 311 303 302 309 304 299 298 298 302 303 302 298 298 300 300 299 296 294 287 292 290 291 294 297 295 282
313 319 316 313 315 314 313 323 315 311 308 309 307 310 308 310 304 299 302 307 306 299 300 299 299 304 305 304 305 303 302 302 300 297 290 292 305 305 302 294 284 275 273
314 315 315 315 314 313 318 314 313 309 308 309 311 311 310 308 309 311 306 302 302 301 307 298 306 303 302 303 302 298 301 299 300 286 308 303 292 290 290 289 289 290 285
315 316 316 316 314 313 315 315 315 310 308 311 311 311 312 310 317 306 305 303 313 297 300 305 301 300 298 297 301 298 298 294 290 295 302 284 294 277 282 277 284 286 284
316 316 314 313 311 310 316 320 321 309 313 314 312 313 311 313 308 310 307 312 305 314 309 306 298 296 290 294 297 299 295 290 287 285 279 286 303 289 292 299 290 288 274
314 312 312 312 312 314 323 322 321 316 317 316 317 313 313 309 310 319 322 315 316 315 308 308 305 308 306 300 296 299 292 293 298 285 300 285 293 289 294 298 281 295 303
309 312 309 313 314 313 322 320 320 318 317 317 312 311 309 309 318 321 312 314 314 316 313 310 313 309 305 300 298 295 302 296 295 296 301 286 298 295 296 286 332 306 306